Regional Weather Roundup
Issued by NWS

Home | Current Version | Previous Version | Graphics & Text | Print | Product List | Glossary On
Versions: 1 2 3 4 5 6 7 8 9 10 11 12 13 14 15 16 17 18 19 20 21 22 23 24 25 26 27 28 29 30 31 32 33 34 35 36 37 38 39 40 41 42 43 44 45 46 47 48 49 50
000
ASUS45 KCYS 302010
RWRWY

WYOMING REGIONAL WEATHER ROUNDUP
NATIONAL WEATHER SERVICE CHEYENNE WY
200 PM MDT SAT AUG 30 2014

NOTE:  "FAIR" INDICATES FEW OR NO CLOUDS BELOW 12,000 FEET
WITH NO SIGNIFICANT WEATHER AND/OR OBSTRUCTIONS TO VISIBILITY.

WYZ001-302100-
YELLOWSTONE NATIONAL PARK

CITY           SKY/WX    TMP DP  RH WIND       PRES   REMARKS
LK YELLOWSTONE   N/A     43  40  89 NW9       30.13R
W YELLOWSTONE  NOT AVBL

$$
WYZ002>013-054>058-071-098>099-302100-
NORTHERN WYOMING

CITY           SKY/WX    TMP DP  RH WIND       PRES   REMARKS
JACKSON        MOSUNNY   66  46  48 SW16      29.96S
CODY           CLOUDY    59  48  67 W15G39    29.93R THUNDER
GREYBULL       MOSUNNY   81  43  26 N12       29.73F
WORLAND        MOSUNNY   81  48  31 N7        29.73F
SHERIDAN       MOSUNNY   75  49  39 NW16      29.80F
BUFFALO        MOSUNNY   73  49  42 N20       29.84F
GILLETTE       PTSUNNY   83  51  33 N16       29.77F
HULETT         FAIR      86  48  26 MISG      29.79
NEWCASTLE      FAIR      84  43  23 SE13      29.81

$$
WYZ014>020-022>026-101>103-302100-
CENTRAL WYOMING

CITY           SKY/WX    TMP DP  RH WIND       PRES   REMARKS
BIG PINEY      CLOUDY    65  30  27 W32G40    30.08R
PINEDALE       CLOUDY    68  32  26 W23G33    30.05S
DUBOIS         FAIR      70  32  24 W18G45    29.96S
LANDER         CLOUDY    80  33  18 SW17G28   29.86S
RIVERTON       CLOUDY    82  32  16 SW15G26   29.84F
CASPER         SUNNY     88  35  15 SW25G36   29.85F
DOUGLAS        MOSUNNY   89  39  17 SW16G24   29.84F

$$
WYZ021-027>030-104>119-302100-
SOUTHERN WYOMING

CITY           SKY/WX    TMP DP  RH WIND       PRES   REMARKS
EVANSTON       CLOUDY    63  39  41 W25G36    30.17R
KEMMERER       CLOUDY    64  36  34 W23G37    30.12S
ROCK SPRINGS   CLOUDY    72  32  23 SW36G51   30.05F
DIXON          MOCLDY    73  40  31 SW20G35   30.11S
RAWLINS        PTSUNNY   76  37  24 SW22G33   30.04F
LARAMIE        PTSUNNY   76  39  26 W20G29    30.08F
CHEYENNE       SUNNY     81  42  25 SW18G30   30.01F
TORRINGTON     SUNNY     87  48  25 CALM      29.84F
PINE BLUFFS    FAIR      82  37  20 SW9G20    29.95F

$$



USA.gov is the U.S. government's official web portal to all federal, state and local government web resources and services.